[[{"header":{"parameterUnit":"m.s-1","parameterCategory":2,"la1":30.2991,"la2":30.254,"lo1":-89.0895,"lo2":-89.0444,"dy":0.0017,"dx":0.0017,"nx":28,"ny":28,"refTime":"2024-08-16T09:00:00:Z","depth":"0","parameterNumber":2,"parameterNumberName":"U-component_of_CURRENTS"},"data":[0,0,0,0,0,0,0,0,0,0,0,0,0,0,0,0,0,0,0,0,0,0,0,0,0,0,0,0,0,0,0,0,0,0,0,0,0,0,0,0,0,0,0,0,0,0,0,0,0,0,0,0,0,0,0,0,0,0,0.3594,0.3595,0,0.3678,0.3679,0.3679,0.363,0.3628,0.3626,0.3624,0.3637,0.3639,0.3641,0,0,0,0,0,0,0,0,0,0,0,0,0,0.347,0.3472,0.3594,0.3595,0.3597,0.3678,0.3679,0.368,0.3631,0.3628,0.3626,0.3623,0.3636,0.3639,0.3642,0,0,0,0,0,0,0,0,0,0,0,0,0,0.3532,0.3472,0.3593,0.3585,0.3585,0.3678,0.3679,0.368,0.3631,0.3628,0.3625,0.3622,0.3635,0.3639,0.3642,0.3724,0,0,0.3652,0.3654,0,0,0,0,0,0,0,0,0.3529,0.3536,0.3585,0.3586,0.3586,0.3644,0.364,0.3692,0.3632,0.361,0.3624,0.3621,0.3638,0.3641,0.3659,0.3724,0.3725,0.3652,0.3655,0.3656,0.3657,0,0,0,0,0,0,0,0.3524,0.3533,0.3623,0.3586,0.3587,0.3604,0.3609,0.365,0.3635,0.3611,0.3609,0.3625,0.3636,0.3656,0.3658,0.3725,0.3652,0.3655,0.3657,0.3659,0.3846,0.3849,0,0,0,0,0,0,0.3522,0.3529,0.3621,0.3626,0.3554,0.3609,0.3614,0.3625,0.3636,0.3637,0.3628,0.3623,0.3651,0.3655,0.3659,0.374,0.3656,0.3659,0.3661,0.3843,0.3847,0.385,0,0,0,0,0,0,0.3518,0.3529,0.3617,0.3582,0.3595,0.3614,0.3628,0.3629,0.3648,0.3651,0.3648,0.3646,0.3649,0.3654,0.3704,0.374,0.3661,0.3664,0.3839,0.3844,0.3848,0.3913,0,0,0,0,0,0,0.3514,0.3527,0.3542,0.3582,0.3597,0.3684,0.3631,0.3633,0.3665,0.3659,0.3666,0.3664,0.3647,0.37,0.3708,0.3743,0.3666,0.3836,0.3842,0.3847,0.3907,0.3919,0.3929,0,0,0,0,0,0.351,0.3557,0.3542,0.3553,0.3614,0.3686,0.3697,0.3696,0.3669,0.3697,0.3697,0.3664,0.374,0.3706,0.3714,0.3751,0.3833,0.384,0.3846,0.3902,0.3917,0.3929,0,0,0,0,0,0,0.3526,0.3558,0.3541,0.3597,0.3637,0.3679,0.3717,0.3714,0.374,0.3729,0.371,0.3711,0.3776,0.3766,0.3728,0.3825,0.378,0.3788,0.3819,0.3833,0.3844,0.3879,0.3669,0,0,0,0,0,0.3534,0.3564,0.3601,0.3647,0.3668,0.3692,0.3722,0.3726,0.3754,0.3761,0.3765,0.3777,0.3817,0.3821,0.3861,0.3914,0.3943,0.3943,0.3955,0.3964,0.4002,0.4096,0.4119,0.3872,0.3872,0.3871,0,0,0.3553,0.3577,0.3593,0.3651,0.3678,0.3726,0.3702,0.3763,0.3799,0.3764,0.3815,0.3834,0.3849,0.3908,0.3934,0.3893,0.4045,0.3972,0.3979,0.4013,0.4106,0.413,0.4151,0.3876,0.3875,0.3875,0,0,0.3606,0.3628,0.366,0.3698,0.3749,0.3775,0.3794,0.3841,0.3855,0.3917,0.3904,0.3952,0.399,0.4014,0.4028,0.4134,0.412,0.413,0.4192,0.4283,0.4304,0.4323,0.4364,0.4387,0.4111,0.4112,0.4112,0,0.3623,0.3662,0.3689,0.3732,0.3767,0.3795,0.3841,0.3885,0.3939,0.397,0.3939,0.4048,0.405,0.4139,0.4163,0.4161,0.4193,0.4129,0.4297,0.4316,0.4335,0.4373,0.4397,0.4115,0.4115,0.4115,0.4114,0,0.3685,0.372,0.3758,0.3802,0.3852,0.3911,0.3962,0.4014,0.4029,0.4062,0.4162,0.4188,0.4243,0.4251,0.4235,0.4364,0.4338,0.4316,0.4257,0.4364,0.4397,0.4421,0.4121,0.412,0.4119,0.4118,0,0,0.3699,0.3778,0.3786,0.3803,0.3889,0.3933,0.4021,0.4104,0.4162,0.422,0.4305,0.4378,0.4392,0.4415,0.4412,0.4481,0.4616,0.445,0.4452,0.4482,0.4793,0.4633,0.4642,0.4619,0.4624,0.4628,0.4753,0,0.3728,0.3802,0.3841,0.3914,0.3954,0.4013,0.409,0.4172,0.4241,0.4337,0.44,0.4485,0.4452,0.4483,0.4557,0.4629,0.4687,0.4583,0.4696,0.4699,0.4537,0.4668,0.4386,0.4462,0.4776,0.478,0.4783,0,0.375,0.3803,0.387,0.3949,0.3973,0.4024,0.4145,0.4221,0.4371,0.443,0.4537,0.4589,0.4725,0.4669,0.4851,0.4786,0.4804,0.4838,0.4843,0.4697,0.4585,0.4415,0.4493,0.4393,0.4819,0.4816,0.4813,0,0.3716,0.3809,0.3856,0.3887,0.3998,0.4039,0.4104,0.4244,0.4338,0.4502,0.4599,0.4738,0.4834,0.492,0.4978,0.4934,0.516,0.5097,0.4966,0.4953,0.474,0.4698,0.4729,0.5224,0.5224,0.5223,0.5223,0,0.3716,0.3749,0.3838,0.3868,0.3946,0.4017,0.4128,0.4222,0.439,0.4512,0.4641,0.4765,0.4911,0.5035,0.5054,0.5093,0.5219,0.5025,0.5,0.4748,0.4708,0.4629,0.4596,0.5228,0.5227,0.5226,0.5225,0,0.3663,0.372,0.3782,0.3892,0.393,0.3983,0.4144,0.4233,0.4394,0.4569,0.4632,0.485,0.4995,0.5099,0.5245,0.518,0.5073,0.5189,0.4858,0.479,0.4521,0.4501,0.4395,0.4281,0.5078,0.5075,0.5072,0,0.3634,0.3665,0.3789,0.384,0.3888,0.3986,0.4065,0.4223,0.4322,0.4595,0.467,0.4881,0.497,0.513,0.5063,0.5069,0.4978,0.4801,0.4663,0.4508,0.4471,0.4337,0.424,0.4403,0.4396,0.4389,0.4384,0,0.3609,0.3654,0.3719,0.3825,0.3899,0.3997,0.4105,0.4179,0.4361,0.4494,0.4659,0.4755,0.4868,0.4745,0.4742,0.4705,0.4545,0.4667,0.4619,0.4055,0.3804,0.3677,0.4303,0.4328,0.4334,0.4338,0.4341,0.4343,0.3593,0.3626,0.3722,0.3797,0.3891,0.3966,0.3966,0.4079,0.4186,0.4264,0.4475,0.4464,0.4451,0.4387,0.4333,0.4062,0.4143,0.3907,0.3931,0.3838,0.3614,0.4094,0.4013,0.4016,0.4019,0.4022,0.4025,0,0.357,0.3612,0.369,0.3764,0.3798,0.3883,0.3954,0.3895,0.3891,0.3982,0.4037,0.3937,0.3785,0.3747,0.3533,0.3363,0.3217,0.3292,0.3067,0.3039,0.3562,0.3417,0.3064,0.3064,0.3064,0.3064,0.3064,0.3065,0.3572,0.3606,0.3624,0.3643,0.3674,0.3636,0.3615,0.3544,0.3533,0.3389,0.3263,0.3286,0.3364,0.3242,0.3013,0.2927,0.2764,0.2561,0.2692,0.3081,0.3141,0.3197,0.3056,0.2633,0.2632,0.1977,0.1972,0.1968]},{"header":{"parameterUnit":"m.s-1","parameterCategory":2,"la1":30.2991,"la2":30.254,"lo1":-89.0895,"lo2":-89.0444,"dy":0.0017,"dx":0.0017,"nx":28,"ny":28,"refTime":"2024-08-16T09:00:00:Z","depth":"0","parameterNumber":3,"parameterNumberName":"V-component_of_CURRENTS"},"data":[0,0,0,0,0,0,0,0,0,0,0,0,0,0,0,0,0,0,0,0,0,0,0,0,0,0,0,0,0,0,0,0,0,0,0,0,0,0,0,0,0,0,0,0,0,0,0,0,0,0,0,0,0,0,0,0,0,0,0.0238,0.0238,0,0.0234,0.0234,0.0234,0.0203,0.0203,0.0202,0.0201,0.0173,0.0173,0.0173,0,0,0,0,0,0,0,0,0,0,0,0,0,0.0222,0.0222,0.0238,0.0238,0.0238,0.0234,0.0234,0.0234,0.0204,0.0203,0.0202,0.0201,0.0173,0.0173,0.0173,0,0,0,0,0,0,0,0,0,0,0,0,0,0.0224,0.0222,0.0238,0.0222,0.0221,0.0234,0.0234,0.0234,0.0204,0.0203,0.0201,0.02,0.0173,0.0173,0.0173,0.0195,0,0,0.0173,0.0173,0,0,0,0,0,0,0,0,0.0224,0.0225,0.0225,0.0224,0.0222,0.0218,0.0217,0.0219,0.0204,0.0211,0.0201,0.02,0.0187,0.0185,0.0188,0.0194,0.0193,0.0173,0.0173,0.0173,0.0173,0,0,0,0,0,0,0,0.0224,0.0225,0.0237,0.0225,0.0223,0.0216,0.0215,0.0218,0.0205,0.021,0.0208,0.0207,0.0185,0.0188,0.0187,0.0192,0.0173,0.0173,0.0173,0.0173,0.0195,0.0195,0,0,0,0,0,0,0.0226,0.0225,0.0237,0.0237,0.022,0.0217,0.0216,0.022,0.0205,0.0202,0.0208,0.0206,0.0189,0.0187,0.0186,0.0219,0.0173,0.0173,0.0173,0.0194,0.0195,0.0195,0,0,0,0,0,0,0.0225,0.0227,0.0237,0.023,0.0231,0.0218,0.0224,0.0221,0.0223,0.0204,0.02,0.0213,0.0188,0.0186,0.0193,0.0217,0.0173,0.0173,0.0193,0.0194,0.0195,0.0281,0,0,0,0,0,0,0.0225,0.0227,0.0234,0.023,0.0231,0.0256,0.0225,0.0222,0.0224,0.0221,0.0207,0.0203,0.0187,0.0194,0.0193,0.0216,0.0173,0.0193,0.0194,0.0195,0.0278,0.0285,0.0291,0,0,0,0,0,0.0225,0.0244,0.0235,0.0236,0.0241,0.0257,0.0258,0.0244,0.0226,0.0239,0.0224,0.0203,0.02,0.0195,0.0194,0.0218,0.0192,0.0193,0.0195,0.0275,0.0284,0.0291,0,0,0,0,0,0,0.024,0.0243,0.0232,0.0251,0.0256,0.0252,0.0266,0.0252,0.0251,0.0247,0.022,0.0216,0.0229,0.021,0.0205,0.0224,0.019,0.0191,0.0251,0.0259,0.0266,0.0294,0.0173,0,0,0,0,0,0.0248,0.0264,0.0261,0.0278,0.0284,0.0275,0.0279,0.0271,0.0268,0.0266,0.0255,0.024,0.0236,0.0237,0.023,0.0249,0.0238,0.0259,0.0266,0.0272,0.0294,0.0295,0.0304,0.02,0.02,0.02,0,0,0.0257,0.0262,0.027,0.0283,0.0287,0.0314,0.0276,0.0293,0.0313,0.0265,0.0291,0.0268,0.0245,0.0264,0.0267,0.0251,0.0294,0.0274,0.028,0.0298,0.0297,0.0308,0.0317,0.0201,0.0201,0.0201,0,0,0.0295,0.0293,0.0322,0.0334,0.0345,0.0346,0.0352,0.0354,0.0353,0.0372,0.0339,0.0334,0.0331,0.0322,0.0315,0.0357,0.033,0.0346,0.0411,0.0411,0.0421,0.0429,0.0425,0.0432,0.0351,0.0351,0.0351,0,0.0307,0.0343,0.0334,0.0368,0.0388,0.0364,0.0405,0.0408,0.0409,0.0421,0.0391,0.0392,0.0363,0.039,0.0396,0.0376,0.0369,0.0384,0.0423,0.043,0.0437,0.0431,0.0438,0.0356,0.0355,0.0355,0.0354,0,0.0369,0.0398,0.0421,0.0458,0.0477,0.051,0.0512,0.0528,0.0518,0.0517,0.0537,0.0501,0.0504,0.0484,0.0453,0.0487,0.0465,0.0432,0.0408,0.0453,0.0443,0.0449,0.0362,0.036,0.0359,0.0358,0,0,0.0403,0.0454,0.0465,0.05,0.0529,0.0557,0.0595,0.063,0.067,0.065,0.0703,0.0666,0.0643,0.0633,0.0591,0.0581,0.0606,0.0532,0.053,0.054,0.0611,0.0557,0.0557,0.0582,0.0584,0.0585,0.0585,0,0.0459,0.0541,0.0551,0.0634,0.068,0.0678,0.0722,0.0746,0.0759,0.0804,0.0762,0.0792,0.0701,0.0713,0.0689,0.0645,0.0625,0.0609,0.0557,0.0555,0.0511,0.0563,0.0545,0.0541,0.059,0.0591,0.0591,0,0.0523,0.0573,0.0662,0.0734,0.0755,0.0795,0.0873,0.0913,0.0952,0.0964,0.0975,0.0951,0.0952,0.086,0.0805,0.0803,0.0715,0.0657,0.0655,0.0583,0.0511,0.0502,0.0548,0.042,0.0599,0.0598,0.0598,0,0.0569,0.0653,0.0731,0.0756,0.083,0.0869,0.0909,0.096,0.103,0.1081,0.1147,0.1112,0.114,0.1032,0.0899,0.0867,0.0828,0.0768,0.0629,0.0624,0.0589,0.0578,0.0516,0.0713,0.0713,0.0713,0.0713,0,0.0633,0.0697,0.0758,0.0805,0.0907,0.093,0.1046,0.1077,0.1167,0.1291,0.1241,0.1338,0.1187,0.1142,0.0976,0.0835,0.0886,0.0663,0.063,0.0615,0.0607,0.0475,0.0382,0.0712,0.0712,0.0712,0.0712,0,0.0679,0.0718,0.0816,0.0901,0.0934,0.101,0.1143,0.1237,0.1302,0.1471,0.1506,0.1536,0.1496,0.131,0.1157,0.0964,0.0718,0.0724,0.0713,0.0677,0.0421,0.0332,0.0218,0.0168,0.0599,0.0598,0.0597,0,0.0711,0.0765,0.0886,0.0958,0.1001,0.1115,0.1211,0.1298,0.1423,0.1611,0.1715,0.1729,0.1765,0.1507,0.1175,0.0882,0.0716,0.0642,0.0562,0.0426,0.0303,0.0237,0.02,0.055,0.0548,0.0547,0.0546,0,0.0779,0.082,0.0904,0.1044,0.1153,0.1295,0.1438,0.1557,0.1706,0.1867,0.2067,0.2109,0.187,0.1586,0.1146,0.0925,0.0544,0.0609,0.0484,0.0278,0.019,0.0121,0.0524,0.0537,0.0538,0.0538,0.0539,0.0539,0.0833,0.0904,0.1015,0.1146,0.1283,0.1465,0.1599,0.1783,0.2012,0.226,0.2299,0.2376,0.1931,0.1354,0.105,0.0478,0.0481,0.0289,0.0201,0.0154,0.008,0.0456,0.0413,0.0413,0.0414,0.0414,0.0414,0,0.09,0.0985,0.1112,0.1286,0.1443,0.1502,0.1753,0.1913,0.2198,0.2389,0.2555,0.2348,0.1813,0.1265,0.0478,0.0118,0.0011,-0.0062,-0.0147,-0.0159,0.0198,0.0169,0.0054,0.0054,0.0054,0.0054,0.0054,0.0054,0.0948,0.1071,0.1133,0.1386,0.1517,0.1748,0.1898,0.2145,0.232,0.2542,0.2555,0.2533,0.209,0.078,-0.0062,-0.0243,-0.0423,-0.0511,-0.0579,-0.0339,-0.0312,-0.0286,-0.0332,-0.0551,-0.0551,-0.088,-0.0884,-0.0887]}],[{"header":{"parameterUnit":"m.s-1","parameterCategory":2,"la1":30.2991,"la2":30.254,"lo1":-89.0895,"lo2":-89.0444,"dy":0.0017,"dx":0.0017,"nx":28,"ny":28,"refTime":"2024-08-16T09:00:00:Z","depth":"2","parameterNumber":2,"parameterNumberName":"U-component_of_CURRENTS"},"data":[0,0,0,0,0,0,0,0,0,0,0,0,0,0,0,0,0,0,0,0,0,0,0,0,0,0,0,0,0,0,0,0,0,0,0,0,0,0,0,0,0,0,0,0,0,0,0,0,0,0,0,0,0,0,0,0,0,0,0.2967,0.2968,0,0.3001,0.3001,0.3001,0.2995,0.2995,0.2995,0.2995,0.3022,0.3023,0.3024,0,0,0,0,0,0,0,0,0,0,0,0,0,0.2914,0.2914,0.2967,0.2968,0.2969,0.3001,0.3001,0.3001,0.2995,0.2995,0.2995,0.2995,0.3022,0.3023,0.3024,0,0,0,0,0,0,0,0,0,0,0,0,0,0.2936,0.2914,0.2967,0.2974,0.2975,0.3001,0.3001,0.3001,0.2995,0.2995,0.2995,0.2995,0.3022,0.3023,0.3024,0.3034,0,0,0.3028,0.3028,0,0,0,0,0,0,0,0,0.2934,0.2937,0.2972,0.2974,0.2975,0.2999,0.2993,0.3014,0.2995,0.2981,0.2995,0.2994,0.3018,0.3019,0.3018,0.3036,0.3037,0.3028,0.3029,0.3029,0.303,0,0,0,0,0,0,0,0.2933,0.2936,0.2975,0.2973,0.2975,0.2982,0.2984,0.2997,0.2995,0.2983,0.2984,0.2997,0.3018,0.3017,0.3019,0.3037,0.3028,0.3029,0.303,0.303,0.3145,0.3147,0,0,0,0,0,0,0.294,0.2934,0.2974,0.2976,0.2961,0.2983,0.2985,0.2987,0.2995,0.2998,0.2997,0.2996,0.3015,0.3017,0.302,0.3091,0.3029,0.303,0.3031,0.3143,0.3145,0.3148,0,0,0,0,0,0,0.2938,0.2942,0.2973,0.2961,0.2966,0.2985,0.2986,0.2988,0.3002,0.3007,0.3009,0.3012,0.3015,0.3018,0.3067,0.3089,0.3031,0.3032,0.314,0.3143,0.3147,0.3196,0,0,0,0,0,0,0.2936,0.2941,0.2957,0.2961,0.2968,0.2998,0.2987,0.2989,0.3012,0.3012,0.3021,0.3022,0.3015,0.3066,0.3069,0.309,0.3033,0.3137,0.3141,0.3146,0.3191,0.32,0.3208,0,0,0,0,0,0.2934,0.2953,0.2957,0.2963,0.2984,0.3,0.3003,0.3012,0.3013,0.3022,0.3048,0.3022,0.3095,0.3069,0.3072,0.3094,0.3135,0.314,0.3145,0.3187,0.3198,0.3208,0,0,0,0,0,0,0.2936,0.2955,0.2959,0.2983,0.2997,0.3001,0.302,0.3024,0.3049,0.3065,0.3055,0.3059,0.3119,0.3105,0.3076,0.3144,0.3109,0.3115,0.3141,0.3151,0.3159,0.3205,0.3034,0,0,0,0,0,0.2946,0.2961,0.2978,0.2995,0.3007,0.3016,0.303,0.3043,0.3063,0.3073,0.3077,0.31,0.314,0.3144,0.3177,0.3202,0.3228,0.322,0.3228,0.3236,0.3278,0.3356,0.3375,0.3165,0.3165,0.3165,0,0,0.2953,0.2964,0.2975,0.2998,0.3008,0.3034,0.3022,0.3057,0.3088,0.3075,0.3117,0.3143,0.3163,0.3209,0.323,0.3194,0.3303,0.3242,0.3248,0.3287,0.3363,0.3384,0.3402,0.3168,0.3168,0.3167,0,0,0.2971,0.2983,0.3006,0.302,0.3056,0.3066,0.308,0.3101,0.3122,0.318,0.3185,0.3237,0.3265,0.3287,0.3303,0.3381,0.3365,0.3371,0.3425,0.3499,0.3517,0.3534,0.356,0.3578,0.335,0.335,0.335,0,0.2988,0.3002,0.3016,0.304,0.306,0.3081,0.3113,0.314,0.3177,0.3209,0.321,0.3306,0.3317,0.3381,0.3414,0.3401,0.3426,0.3375,0.3511,0.3528,0.3544,0.3567,0.3587,0.3353,0.3352,0.3352,0.3352,0,0.301,0.3034,0.3047,0.3081,0.311,0.3138,0.3181,0.3216,0.3253,0.3288,0.3381,0.3415,0.3468,0.347,0.3474,0.3574,0.3548,0.3529,0.3481,0.3568,0.3586,0.3606,0.3357,0.3356,0.3355,0.3354,0,0,0.3016,0.3057,0.3062,0.308,0.3135,0.3154,0.3223,0.3285,0.3341,0.3401,0.3478,0.3559,0.3584,0.3609,0.3602,0.3664,0.3784,0.3648,0.365,0.3668,0.3925,0.3772,0.3778,0.3785,0.379,0.3793,0.3878,0,0.3029,0.3071,0.3094,0.3139,0.3167,0.3208,0.3266,0.3338,0.3408,0.3488,0.3558,0.3644,0.3629,0.3668,0.3732,0.3793,0.3846,0.3762,0.3845,0.3848,0.3698,0.38,0.3487,0.3526,0.3897,0.39,0.3903,0,0.3033,0.3068,0.311,0.3169,0.3186,0.3222,0.3316,0.3376,0.3503,0.357,0.3669,0.3727,0.3841,0.3819,0.3965,0.3911,0.3942,0.3973,0.3976,0.3843,0.3734,0.3509,0.3548,0.3936,0.3933,0.3931,0.3928,0,0.3008,0.3067,0.3095,0.3112,0.3194,0.323,0.3285,0.3405,0.3484,0.3633,0.3727,0.384,0.3939,0.401,0.407,0.4041,0.4219,0.417,0.4052,0.4039,0.3798,0.3755,0.4292,0.4292,0.4291,0.4291,0.4291,0,0.2985,0.3009,0.3083,0.3098,0.316,0.3226,0.3318,0.3395,0.3543,0.3642,0.3768,0.3867,0.401,0.4106,0.4124,0.4146,0.4256,0.4105,0.4074,0.3798,0.3757,0.4136,0.4117,0.4294,0.4293,0.4293,0.4292,0,0.2929,0.2973,0.3018,0.3111,0.3144,0.3191,0.3331,0.3398,0.3554,0.3693,0.3757,0.3952,0.407,0.4151,0.4279,0.4215,0.4242,0.421,0.3853,0.3779,0.3994,0.3977,0.4108,0.4103,0.41,0.4097,0.4095,0,0.2895,0.2906,0.3016,0.3048,0.3083,0.3172,0.3234,0.339,0.3469,0.3711,0.3765,0.396,0.4022,0.4136,0.4095,0.4083,0.4186,0.3767,0.3662,0.4031,0.3989,0.3976,0.3964,0.335,0.3341,0.3335,0.3329,0,0.2843,0.2882,0.2932,0.3003,0.306,0.3123,0.3222,0.3286,0.346,0.3555,0.3671,0.3746,0.3884,0.3742,0.3756,0.3699,0.374,0.3624,0.4148,0.3431,0.332,0.3276,0.3289,0.3268,0.3274,0.3279,0.3282,0.3284,0.2812,0.283,0.29,0.293,0.3016,0.3049,0.3034,0.3129,0.3198,0.3285,0.345,0.3441,0.3498,0.3357,0.3233,0.3149,0.3413,0.3246,0.3266,0.3294,0.3178,0.3066,0.2943,0.2947,0.295,0.2953,0.2956,0,0.2756,0.2773,0.2812,0.2837,0.2851,0.2928,0.2995,0.2924,0.2898,0.302,0.3056,0.2814,0.273,0.2791,0.257,0.2538,0.2511,0.2424,0.2373,0.2436,0.2492,0.2334,0.1875,0.1871,0.1868,0.1865,0,0,0.2735,0.2729,0.2715,0.2665,0.2667,0.2617,0.2611,0.2528,0.2569,0.2487,0.2456,0.2661,0.2736,0.2293,0.2213,0.2011,0.2209,0.1923,0.2799,0.2806,0.2857,0.2981,0.2811,0,0,0,0,0]},{"header":{"parameterUnit":"m.s-1","parameterCategory":2,"la1":30.2991,"la2":30.254,"lo1":-89.0895,"lo2":-89.0444,"dy":0.0017,"dx":0.0017,"nx":28,"ny":28,"refTime":"2024-08-16T09:00:00:Z","depth":"2","parameterNumber":3,"parameterNumberName":"V-component_of_CURRENTS"},"data":[0,0,0,0,0,0,0,0,0,0,0,0,0,0,0,0,0,0,0,0,0,0,0,0,0,0,0,0,0,0,0,0,0,0,0,0,0,0,0,0,0,0,0,0,0,0,0,0,0,0,0,0,0,0,0,0,0,0,0.0119,0.0119,0,0.0108,0.0108,0.0108,0.0086,0.0085,0.0085,0.0084,0.0054,0.0054,0.0054,0,0,0,0,0,0,0,0,0,0,0,0,0,0.011,0.011,0.0119,0.0119,0.0119,0.0108,0.0108,0.0108,0.0086,0.0085,0.0085,0.0084,0.0055,0.0054,0.0054,0,0,0,0,0,0,0,0,0,0,0,0,0,0.0108,0.011,0.0119,0.0106,0.0105,0.0108,0.0108,0.0108,0.0086,0.0085,0.0085,0.0084,0.0055,0.0054,0.0054,0.0063,0,0,0.0052,0.0052,0,0,0,0,0,0,0,0,0.0108,0.0108,0.0108,0.0107,0.0106,0.0098,0.0094,0.0092,0.0086,0.0093,0.0084,0.0084,0.0068,0.0066,0.0066,0.0062,0.0061,0.0052,0.0051,0.0051,0.0051,0,0,0,0,0,0,0,0.0108,0.0108,0.0115,0.0108,0.0107,0.0097,0.0097,0.0093,0.0084,0.0093,0.0091,0.009,0.0067,0.0066,0.0065,0.006,0.0052,0.0051,0.0051,0.0051,0.0058,0.0059,0,0,0,0,0,0,0.0111,0.0109,0.0115,0.0114,0.0105,0.0098,0.0097,0.0101,0.0084,0.0081,0.009,0.0089,0.0068,0.0065,0.0064,0.0086,0.0051,0.0051,0.005,0.0058,0.0058,0.0059,0,0,0,0,0,0,0.0111,0.0112,0.0115,0.0111,0.0111,0.0099,0.0103,0.0101,0.0102,0.0083,0.0079,0.0094,0.0067,0.0064,0.0068,0.0084,0.005,0.005,0.0057,0.0058,0.0059,0.0123,0,0,0,0,0,0,0.0111,0.0112,0.0118,0.0111,0.0111,0.0126,0.0104,0.0101,0.0102,0.01,0.0085,0.0081,0.0066,0.0069,0.0067,0.0083,0.0049,0.0056,0.0057,0.0058,0.012,0.0126,0.0131,0,0,0,0,0,0.011,0.0126,0.0119,0.0119,0.0119,0.0127,0.0127,0.0115,0.0103,0.0112,0.01,0.0082,0.0074,0.007,0.0067,0.0083,0.0056,0.0057,0.0058,0.0118,0.0125,0.0131,0,0,0,0,0,0,0.0123,0.0125,0.0117,0.0131,0.0131,0.0123,0.0132,0.0121,0.0119,0.0117,0.0094,0.009,0.0097,0.0081,0.0077,0.0086,0.006,0.0061,0.0106,0.0112,0.0118,0.014,0.0049,0,0,0,0,0,0.013,0.0144,0.0138,0.0151,0.0153,0.0143,0.0144,0.0137,0.0133,0.0131,0.0118,0.0106,0.0101,0.01,0.0092,0.0103,0.0084,0.0108,0.0114,0.0119,0.0134,0.0121,0.0127,0.0063,0.0063,0.0063,0,0,0.0136,0.0141,0.0147,0.0155,0.0154,0.0173,0.0143,0.0153,0.0169,0.0129,0.0146,0.0125,0.0108,0.0118,0.0119,0.0107,0.0124,0.012,0.0124,0.0138,0.0123,0.0129,0.0135,0.0064,0.0064,0.0064,0,0,0.0167,0.0164,0.0189,0.0195,0.02,0.0198,0.0203,0.0198,0.0197,0.021,0.0182,0.0174,0.017,0.0159,0.0154,0.0185,0.0152,0.0176,0.0225,0.0212,0.0217,0.0222,0.0197,0.0199,0.018,0.0181,0.0181,0,0.0176,0.0207,0.0196,0.0223,0.0238,0.0213,0.0246,0.0244,0.024,0.0248,0.0226,0.0217,0.0194,0.0209,0.0216,0.0199,0.0182,0.0204,0.022,0.0224,0.0228,0.0201,0.0203,0.0184,0.0183,0.0183,0.0183,0,0.0225,0.025,0.0267,0.0296,0.0309,0.0333,0.0331,0.0338,0.033,0.0327,0.0335,0.0301,0.0299,0.0281,0.026,0.0274,0.0249,0.0228,0.0207,0.0238,0.0208,0.0208,0.0188,0.0187,0.0186,0.0185,0,0,0.0253,0.0295,0.0304,0.0335,0.0353,0.0375,0.04,0.0425,0.0455,0.0429,0.0466,0.0432,0.0407,0.0398,0.0359,0.0341,0.0337,0.0301,0.0298,0.0282,0.0303,0.0255,0.0249,0.0319,0.032,0.032,0.0268,0,0.03,0.0369,0.0376,0.0445,0.0483,0.0476,0.0512,0.0526,0.0529,0.0555,0.051,0.0529,0.0454,0.046,0.0426,0.037,0.0343,0.0353,0.027,0.0267,0.0226,0.025,0.0271,0.0224,0.0268,0.0268,0.0268,0,0.0352,0.0396,0.0471,0.0536,0.0553,0.0586,0.0645,0.0676,0.0691,0.0696,0.0687,0.0656,0.0631,0.0564,0.0473,0.0484,0.0403,0.0343,0.0339,0.0277,0.0221,0.0201,0.0222,0.0268,0.0268,0.0268,0.0268,0,0.0395,0.0466,0.0534,0.0555,0.0617,0.0651,0.0686,0.0718,0.0775,0.0793,0.0838,0.0776,0.0782,0.0666,0.0526,0.0511,0.0417,0.0381,0.0256,0.025,0.0244,0.0237,0.0317,0.0317,0.0317,0.0318,0.0318,0,0.0449,0.0505,0.0561,0.06,0.0695,0.0712,0.0813,0.0833,0.0895,0.099,0.0921,0.0974,0.0813,0.0735,0.0575,0.0416,0.0451,0.0274,0.024,0.0264,0.026,0.0279,0.0276,0.0316,0.0316,0.0316,0.0317,0,0.0489,0.0523,0.0611,0.0686,0.072,0.079,0.091,0.0988,0.1027,0.1151,0.1171,0.1143,0.1045,0.085,0.0673,0.0507,0.0338,0.0266,0.0295,0.0265,0.0167,0.0168,0.014,0.0138,0.0136,0.0135,0.0133,0,0.0518,0.0564,0.0677,0.0746,0.0786,0.0893,0.0981,0.1051,0.1151,0.1262,0.1336,0.1282,0.1253,0.095,0.0661,0.0372,0.033,0.0188,0.0159,0.0183,0.0153,0.0155,0.0158,0.0172,0.0171,0.017,0.017,0,0.0575,0.0612,0.0689,0.0824,0.0927,0.1061,0.1189,0.1292,0.1402,0.1489,0.1586,0.1565,0.1305,0.1023,0.0621,0.042,0.0231,0.0166,0.0203,0.0207,0.0207,0.0179,0.0182,0.0164,0.0165,0.0165,0.0165,0.0166,0.0623,0.0686,0.0787,0.0916,0.1051,0.1223,0.1338,0.148,0.164,0.1783,0.1752,0.1715,0.1401,0.0894,0.0549,0.0194,0.0219,0.0077,0.0081,0.0086,0.0094,0.009,0.0026,0.0026,0.0025,0.0025,0.0025,0,0.0685,0.0757,0.0875,0.1043,0.1196,0.1254,0.1479,0.159,0.1777,0.1875,0.1921,0.1605,0.129,0.0926,0.041,0.009,0.0076,-0.0025,0.0033,0.0041,0.0048,0.0055,-0.0025,-0.0026,-0.0027,-0.0028,0,0,0.0724,0.0836,0.0891,0.1134,0.1259,0.1467,0.1599,0.1752,0.1863,0.1935,0.1908,0.1841,0.1401,0.101,0.0582,0.0285,0.0233,0.0217,0.0291,0.0418,0.0429,0.0138,0.0161,0,0,0,0,0]}],[{"header":{"parameterUnit":"m.s-1","parameterCategory":2,"la1":30.2991,"la2":30.254,"lo1":-89.0895,"lo2":-89.0444,"dy":0.0017,"dx":0.0017,"nx":28,"ny":28,"refTime":"2024-08-16T09:00:00:Z","depth":"4","parameterNumber":2,"parameterNumberName":"U-component_of_CURRENTS"},"data":[0,0,0,0,0,0,0,0,0,0,0,0,0,0,0,0,0,0,0,0,0,0,0,0,0,0,0,0,0,0,0,0,0,0,0,0,0,0,0,0,0,0,0,0,0,0,0,0,0,0,0,0,0,0,0,0,0,0,0.1784,0.1785,0,0.1836,0.1836,0.1837,0.1898,0.1899,0.19,0.1901,0.1965,0.1965,0.1966,0,0,0,0,0,0,0,0,0,0,0,0,0,0.1754,0.1754,0.1784,0.1785,0.1786,0.1836,0.1836,0.1837,0.1898,0.1899,0.19,0.1901,0.1965,0.1965,0.1966,0,0,0,0,0,0,0,0,0,0,0,0,0,0.1782,0.1754,0.1784,0.1823,0.1827,0.1836,0.1836,0.1837,0.1897,0.1899,0.19,0.1902,0.1964,0.1965,0.1966,0.1942,0,0,0.197,0.197,0,0,0,0,0,0,0,0,0.178,0.1782,0.1816,0.182,0.1825,0.1863,0.185,0.1873,0.1897,0.1869,0.1901,0.1903,0.1931,0.1935,0.194,0.1945,0.1948,0.197,0.1971,0.1971,0.1971,0,0,0,0,0,0,0,0.1778,0.1781,0.1803,0.1817,0.1822,0.1843,0.1849,0.1854,0.189,0.1872,0.1877,0.1884,0.1934,0.1938,0.1942,0.1949,0.197,0.1971,0.1971,0.1972,0.2068,0.207,0,0,0,0,0,0,0.1771,0.1779,0.1802,0.1805,0.1807,0.1843,0.1849,0.1848,0.189,0.1898,0.1882,0.1886,0.1936,0.194,0.1944,0.2024,0.1971,0.1972,0.1973,0.2066,0.2068,0.207,0,0,0,0,0,0,0.177,0.1772,0.18,0.1795,0.18,0.1842,0.1841,0.1848,0.1895,0.1898,0.1907,0.1927,0.1937,0.1943,0.1988,0.2023,0.1973,0.1974,0.2064,0.2067,0.2069,0.2116,0,0,0,0,0,0,0.1769,0.1771,0.1787,0.1794,0.18,0.1832,0.1839,0.1848,0.1895,0.1902,0.1938,0.1943,0.1939,0.1986,0.1989,0.2024,0.1974,0.2061,0.2065,0.2068,0.2112,0.212,0.2127,0,0,0,0,0,0.1768,0.1775,0.1787,0.1791,0.1813,0.1833,0.1839,0.1872,0.1896,0.192,0.195,0.1944,0.2011,0.1988,0.1991,0.2027,0.206,0.2064,0.2068,0.2109,0.2118,0.2127,0,0,0,0,0,0,0.1773,0.1782,0.1796,0.1807,0.1833,0.1844,0.1874,0.1894,0.1935,0.1956,0.196,0.1967,0.2024,0.2019,0.1994,0.2068,0.2038,0.2043,0.2068,0.2077,0.2084,0.2099,0.1975,0,0,0,0,0,0.1778,0.1791,0.1803,0.1821,0.1836,0.1864,0.1884,0.1907,0.1934,0.1956,0.1974,0.2004,0.2035,0.2053,0.2074,0.2104,0.2116,0.2133,0.2141,0.2147,0.2163,0.2209,0.2222,0.2084,0.2084,0.2084,0,0,0.1785,0.1795,0.1803,0.1825,0.185,0.1872,0.1882,0.1924,0.1954,0.1954,0.2009,0.2033,0.2052,0.2095,0.2119,0.2099,0.2194,0.2152,0.2157,0.2171,0.2215,0.2228,0.224,0.2087,0.2087,0.2086,0,0,0.1795,0.1817,0.183,0.1852,0.1894,0.1908,0.1929,0.196,0.1994,0.2042,0.2056,0.2105,0.214,0.216,0.2175,0.2237,0.2236,0.2247,0.229,0.2334,0.2346,0.2356,0.2389,0.2402,0.2244,0.2245,0.2245,0,0.181,0.182,0.1841,0.1862,0.1886,0.1928,0.1952,0.1987,0.203,0.206,0.2075,0.2158,0.2175,0.2229,0.2258,0.2254,0.2276,0.225,0.2343,0.2354,0.2364,0.2395,0.2408,0.2247,0.2247,0.2247,0.2247,0,0.1818,0.1844,0.186,0.1895,0.1924,0.1957,0.1997,0.2043,0.2092,0.2122,0.2205,0.2234,0.2286,0.2299,0.2302,0.2378,0.237,0.235,0.2317,0.238,0.2409,0.2422,0.2251,0.225,0.225,0.2249,0,0,0.1799,0.1854,0.1863,0.1883,0.1947,0.1961,0.203,0.2088,0.2141,0.2203,0.2268,0.2337,0.2369,0.239,0.24,0.2439,0.2527,0.2431,0.2432,0.2458,0.2627,0.2455,0.2453,0.2523,0.2526,0.2528,0.2619,0,0.1805,0.1841,0.1871,0.1914,0.1934,0.1996,0.2048,0.2112,0.2184,0.2255,0.232,0.2393,0.2398,0.244,0.2483,0.252,0.2565,0.2504,0.2568,0.257,0.2404,0.2463,0.2537,0.2629,0.2632,0.2634,0.2635,0,0.1793,0.1821,0.1863,0.1919,0.1936,0.1975,0.2071,0.2127,0.2241,0.2305,0.2398,0.2448,0.2541,0.253,0.2639,0.2602,0.2633,0.265,0.2654,0.2487,0.2422,0.2554,0.2659,0.2657,0.2656,0.2654,0.2653,0,0.1745,0.1806,0.184,0.186,0.1936,0.1982,0.204,0.215,0.2215,0.2355,0.243,0.2525,0.2609,0.2658,0.2722,0.2694,0.2825,0.278,0.2653,0.2642,0.2748,0.2736,0.2861,0.2861,0.2861,0.2861,0.2861,0,0.1712,0.1738,0.1827,0.184,0.189,0.1963,0.2049,0.2125,0.2256,0.2336,0.2462,0.2538,0.2654,0.2736,0.2756,0.2749,0.286,0.2676,0.2656,0.2765,0.2755,0.2757,0.2744,0.2864,0.2863,0.2863,0.2862,0,0.1635,0.1702,0.1734,0.1828,0.1867,0.1904,0.2045,0.2098,0.2255,0.237,0.2426,0.2588,0.2689,0.2773,0.2866,0.279,0.2796,0.2768,0.2899,0.2883,0.2573,0.2561,0.2615,0.261,0.2605,0.2601,0.2598,0,0.1591,0.1607,0.1707,0.1729,0.1776,0.1865,0.192,0.208,0.2141,0.2375,0.2401,0.2576,0.2665,0.2664,0.2754,0.2773,0.2744,0.2726,0.2626,0.2574,0.255,0.2546,0.254,0.2591,0.259,0.2589,0.2588,0,0.15,0.1554,0.1583,0.1637,0.1694,0.1751,0.1851,0.1889,0.2077,0.2245,0.2335,0.2399,0.2509,0.2559,0.2608,0.2611,0.2714,0.2679,0.2687,0.2592,0.2546,0.2526,0.2526,0.2572,0.2574,0.2576,0.2577,0,0.1436,0.1435,0.1491,0.1518,0.1579,0.16,0.1682,0.1761,0.1857,0.211,0.2136,0.2325,0.2487,0.2478,0.2514,0.251,0.2458,0.236,0.2383,0.2402,0.2286,0.2193,0.2105,0,0,0,0,0,0.136,0.1349,0.1364,0.1387,0.1433,0.1481,0.1603,0.1695,0.1894,0.1899,0.2016,0.2107,0.2185,0.2272,0.2223,0.2399,0.2454,0.2328,0.235,0.2487,0.2504,0.2386,0,0,0,0,0,0,0.1315,0.1328,0.1324,0.1265,0.1256,0.1311,0.1388,0.1527,0.1542,0.1753,0.1804,0.1967,0.2065,0.2193,0.2179,0.2204,0.217,0.2442,0.2436,0.2476,0.2493,0.2507,0.2391,0,0,0,0,0]},{"header":{"parameterUnit":"m.s-1","parameterCategory":2,"la1":30.2991,"la2":30.254,"lo1":-89.0895,"lo2":-89.0444,"dy":0.0017,"dx":0.0017,"nx":28,"ny":28,"refTime":"2024-08-16T09:00:00:Z","depth":"4","parameterNumber":3,"parameterNumberName":"V-component_of_CURRENTS"},"data":[0,0,0,0,0,0,0,0,0,0,0,0,0,0,0,0,0,0,0,0,0,0,0,0,0,0,0,0,0,0,0,0,0,0,0,0,0,0,0,0,0,0,0,0,0,0,0,0,0,0,0,0,0,0,0,0,0,0,0.0088,0.0088,0,0.0083,0.0083,0.0083,0.0071,0.007,0.007,0.007,0.005,0.005,0.005,0,0,0,0,0,0,0,0,0,0,0,0,0,0.0077,0.0078,0.0088,0.0088,0.0088,0.0083,0.0083,0.0083,0.0071,0.007,0.007,0.0069,0.005,0.005,0.005,0,0,0,0,0,0,0,0,0,0,0,0,0,0.0079,0.0078,0.0088,0.0081,0.008,0.0083,0.0083,0.0083,0.0071,0.007,0.007,0.0069,0.005,0.005,0.005,0.0057,0,0,0.0049,0.0049,0,0,0,0,0,0,0,0,0.0079,0.0079,0.0082,0.0081,0.008,0.0076,0.0072,0.0074,0.0071,0.0075,0.007,0.0069,0.0057,0.0057,0.0058,0.0057,0.0056,0.0049,0.0048,0.0048,0.0048,0,0,0,0,0,0,0,0.0079,0.0079,0.0087,0.0082,0.0081,0.0074,0.0074,0.0072,0.0069,0.0074,0.0073,0.0072,0.0057,0.0058,0.0057,0.0055,0.0049,0.0048,0.0048,0.0048,0.005,0.0051,0,0,0,0,0,0,0.0079,0.008,0.0087,0.0087,0.0078,0.0075,0.0074,0.0079,0.007,0.0068,0.0072,0.0071,0.0059,0.0058,0.0056,0.0071,0.0048,0.0048,0.0048,0.005,0.005,0.0051,0,0,0,0,0,0,0.0079,0.008,0.0087,0.0082,0.0082,0.0075,0.008,0.0079,0.0082,0.0068,0.0066,0.0076,0.0059,0.0057,0.006,0.007,0.0048,0.0048,0.005,0.005,0.0051,0.0097,0,0,0,0,0,0,0.0079,0.008,0.0086,0.0082,0.0083,0.0095,0.008,0.0079,0.0081,0.008,0.0071,0.0068,0.0058,0.0061,0.006,0.0069,0.0047,0.005,0.005,0.005,0.0095,0.0099,0.0102,0,0,0,0,0,0.0079,0.0091,0.0086,0.0087,0.009,0.0095,0.0096,0.0089,0.0082,0.0089,0.0082,0.0069,0.0063,0.0062,0.006,0.0069,0.0049,0.005,0.005,0.0093,0.0098,0.0102,0,0,0,0,0,0,0.0087,0.0091,0.0085,0.0097,0.0097,0.0093,0.01,0.0093,0.0094,0.0093,0.0078,0.0075,0.0079,0.0068,0.0067,0.0069,0.0052,0.0052,0.0085,0.0089,0.0092,0.0106,0.0047,0,0,0,0,0,0.0092,0.0105,0.0101,0.0111,0.0113,0.0107,0.0108,0.0104,0.0102,0.0102,0.0093,0.0084,0.0081,0.0081,0.0073,0.0082,0.0056,0.0083,0.0087,0.009,0.0099,0.0065,0.0066,0.0053,0.0053,0.0053,0,0,0.0097,0.0102,0.0107,0.0114,0.0114,0.0128,0.0107,0.0114,0.0126,0.01,0.0113,0.0097,0.0084,0.0091,0.0091,0.0084,0.0079,0.0091,0.0094,0.0101,0.0066,0.0067,0.0068,0.0053,0.0053,0.0053,0,0,0.0118,0.0119,0.0137,0.0142,0.0145,0.0145,0.0148,0.0145,0.0145,0.0155,0.0135,0.0127,0.0126,0.0116,0.0113,0.0132,0.0097,0.0125,0.0159,0.0125,0.0126,0.0126,0.0092,0.0089,0.0129,0.0129,0.0129,0,0.0124,0.0148,0.0142,0.0161,0.0173,0.0156,0.018,0.0178,0.0175,0.0181,0.0166,0.0156,0.014,0.0148,0.0152,0.0141,0.0114,0.0146,0.013,0.013,0.013,0.0094,0.009,0.0132,0.0131,0.0131,0.0131,0,0.0157,0.0178,0.019,0.0212,0.0223,0.0241,0.0239,0.0244,0.024,0.0236,0.0238,0.0211,0.0207,0.0194,0.0182,0.0176,0.0154,0.0136,0.0121,0.0134,0.0095,0.009,0.0135,0.0134,0.0133,0.0133,0,0,0.0173,0.0207,0.0214,0.024,0.0254,0.0272,0.029,0.0308,0.0329,0.0306,0.0325,0.0303,0.028,0.0274,0.0244,0.0214,0.0183,0.0179,0.0176,0.0148,0.0105,0.0092,0.0085,0.0159,0.0159,0.0158,0.0077,0,0.0204,0.0256,0.0264,0.0318,0.0347,0.0346,0.0372,0.0383,0.0382,0.0392,0.0353,0.0359,0.0313,0.0312,0.0273,0.0206,0.0173,0.0207,0.0094,0.0091,0.0081,0.0081,0.0157,0.0073,0.0072,0.0071,0.0071,0,0.0238,0.0272,0.0331,0.0386,0.04,0.0429,0.0474,0.0497,0.0498,0.0495,0.0479,0.0444,0.0403,0.036,0.025,0.0271,0.0198,0.0138,0.0133,0.0105,0.007,0.0057,0.0061,0.0062,0.0063,0.0063,0.0064,0,0.0265,0.0323,0.0378,0.0395,0.0448,0.0479,0.051,0.053,0.0567,0.0562,0.0577,0.0512,0.0489,0.0383,0.0256,0.0253,0.0124,0.0103,0.0022,0.002,0.0035,0.0035,0.0029,0.0029,0.0029,0.0029,0.003,0,0.03,0.0346,0.0398,0.043,0.0509,0.0526,0.0605,0.062,0.0651,0.0701,0.0638,0.0641,0.0493,0.0401,0.0276,0.0132,0.0136,0.003,-0.0,0.0055,0.0059,0.0031,0.0032,0.0026,0.0027,0.0028,0.0028,0,0.0323,0.0355,0.0425,0.0493,0.0526,0.0585,0.0681,0.0731,0.0749,0.0806,0.0809,0.0737,0.0614,0.0455,0.0278,0.017,0.0027,-0.0023,0.0048,0.0023,-0.0061,-0.0056,-0.0119,-0.012,-0.0121,-0.0122,-0.0123,0,0.0339,0.0376,0.0475,0.0531,0.0569,0.066,0.0728,0.0781,0.0834,0.0863,0.0887,0.0793,0.0721,0.0464,0.0285,0.0042,0.0008,-0.0071,-0.0067,-0.0052,-0.0075,-0.0069,-0.0063,-0.0124,-0.0124,-0.0124,-0.0125,0,0.037,0.0405,0.0465,0.0574,0.0659,0.0765,0.0858,0.0904,0.0964,0.0976,0.0956,0.0829,0.0688,0.0474,0.0285,0.011,-0.0025,-0.0081,-0.008,-0.0077,-0.0059,-0.0079,-0.0073,-0.0128,-0.0127,-0.0127,-0.0127,0,0.0396,0.0441,0.0519,0.062,0.0731,0.0839,0.0888,0.0951,0.1008,0.1028,0.1013,0.0864,0.0774,0.0509,0.0332,0.0158,0.0112,0.0051,0.0044,0.0045,0.0111,0.0159,0.0135,0,0,0,0,0,0.0419,0.0471,0.0559,0.0676,0.0783,0.0852,0.0965,0.1002,0.1052,0.1049,0.1039,0.0909,0.0655,0.0541,0.0366,0.03,0.007,0.0087,-0.0007,-0.0145,-0.0142,-0.0094,0,0,0,0,0,0,0.0436,0.0512,0.0557,0.0704,0.0786,0.0915,0.099,0.1023,0.1022,0.1035,0.0903,0.0851,0.06,0.0753,0.0356,0.0303,0.0217,-0.0029,-0.0033,-0.0147,-0.0144,-0.0141,-0.0091,0,0,0,0,0]}]]